CDT,Max TemperatureF,Mean TemperatureF,Min TemperatureF,Max Dew PointF,MeanDew PointF,Min DewpointF,Max Humidity, Mean Humidity, Min Humidity, Max Sea Level PressureIn, Mean Sea Level PressureIn, Min Sea Level PressureIn, Max VisibilityMiles, Mean VisibilityMiles, Min VisibilityMiles, Max Wind SpeedMPH, Mean Wind SpeedMPH, Max Gust SpeedMPH,PrecipitationIn, CloudCover, Events, WindDirDegrees
2013-6-1,57,50,42,52,45,39,100,92,81,29.96,29.74,29.59,10,8,2,12,3,21,0.41,8,Rain,359
2013-6-2,59,49,39,39,33,27,93,61,31,30.03,30.00,29.96,10,10,7,14,6,23,0.00,4,,333
2013-6-3,64,47,30,41,30,21,100,57,19,30.12,30.06,30.02,10,10,0,9,2,,0.00,0,Fog,48
2013-6-4,62,50,37,39,31,19,100,53,19,30.17,30.14,30.11,10,10,10,10,2,,0.00,5,,108
2013-6-5,55,48,42,45,38,27,87,65,40,30.13,30.11,30.07,10,10,10,16,3,24,0.00,7,Rain,88
2013-6-6,57,49,41,46,42,37,93,76,59,30.10,30.08,30.06,10,10,10,9,4,,0.00,6,,77
2013-6-7,66,50,33,45,39,34,100,66,35,30.06,30.01,29.95,10,10,0,7,1,,0.00,4,Fog,260
2013-6-8,73,56,39,45,39,36,100,55,27,29.99,29.95,29.92,10,10,10,13,3,21,0.00,2,,133
2013-6-9,66,52,39,52,46,37,100,80,40,30.01,29.96,29.85,10,10,5,17,4,24,0.19,3,Rain,116
2013-6-10,64,58,53,55,54,52,100,85,68,29.85,29.83,29.81,10,8,0,8,3,,0.07,7,Fog-Rain,236
2013-6-11,75,63,51,55,48,39,100,63,29,29.90,29.86,29.81,10,10,3,12,3,20,0.00,2,Rain,328
2013-6-12,73,58,42,52,45,41,100,61,35,29.98,29.90,29.88,10,10,10,12,2,20,0.00,1,,348
2013-6-13,75,62,50,50,44,37,88,57,27,30.14,30.10,29.98,10,10,10,10,3,16,0.00,0,,31
2013-6-14,75,57,39,48,41,36,100,57,29,30.15,30.06,29.93,10,10,10,13,4,18,0.00,1,Rain,151
2013-6-15,75,62,50,63,52,34,100,68,25,29.94,29.85,29.79,10,10,4,12,4,17,0.17,3,Rain-Thunderstorm,221
2013-6-16,75,64,53,57,51,45,94,70,36,29.87,29.81,29.78,10,10,2,16,6,26,0.07,3,Rain-Thunderstorm,254
2013-6-17,60,53,44,54,47,39,100,83,59,30.10,30.00,29.85,10,10,2,13,4,,0.15,5,Rain,114
2013-6-18,71,53,35,41,36,30,100,56,27,30.17,30.11,30.05,10,10,10,13,1,16,0.00,1,,192
2013-6-19,78,58,37,61,48,36,94,69,34,30.07,30.01,29.94,10,10,7,12,3,17,0.02,4,Rain,216
2013-6-20,69,64,59,63,59,57,94,87,64,30.09,30.03,29.99,10,10,2,10,4,16,0.10,4,Rain-Thunderstorm,139
2013-6-21,71,64,57,63,60,57,100,86,73,30.07,29.99,29.79,10,9,2,16,5,31,0.57,6,Rain-Thunderstorm,74
2013-6-22,64,60,55,61,57,54,94,87,77,30.11,30.01,29.93,10,9,4,13,5,20,0.04,8,Rain,116
2013-6-23,77,66,55,64,59,55,100,83,53,29.94,29.78,29.69,10,8,2,16,5,24,0.01,6,Rain,169
2013-6-24,82,68,55,57,52,46,94,57,30,29.87,29.82,29.78,10,10,10,14,7,23,0.00,0,,224
2013-6-25,87,69,51,64,55,48,94,61,29,29.83,29.80,29.75,10,10,10,8,2,,0.00,0,,193
2013-6-26,77,70,62,64,61,57,94,79,61,29.76,29.72,29.66,10,10,0,14,3,29,0.96,1,Rain-Thunderstorm,176
2013-6-27,80,70,60,63,59,54,94,72,42,29.76,29.72,29.69,10,10,10,20,5,28,0.02,2,Rain-Thunderstorm,267
2013-6-28,69,64,60,64,60,57,100,89,73,29.84,29.75,29.68,10,9,2,10,5,20,0.27,7,Rain,329
2013-6-29,71,61,51,57,51,45,100,69,38,30.02,29.93,29.83,10,10,4,10,2,18,0.00,1,,31
2013-6-30,78,62,46,55,48,43,100,61,28,30.15,30.09,30.02,10,10,5,9,1,,0.00,1,,23